パンスターズ彗星

P/2018 L1 ( PanSTARRS )

English version
Home page
Updated on May 20, 2019

---------------------------------------------------------------------

・ プロフィール

発見日 2018年6月3日
発見光度 20.0等
発見者 Pan-STARRS 1 telescope (Haleakala)

・ 写真集

・ 軌道要素

Epoch 2018 Nov. 18.0 TT = JDT 2458440.5
T 2018 Nov. 12.52489 TT                                 MPCW
q   1.8856728            (2000.0)            P               Q
n   0.14145515     Peri.   17.88912     +0.27904751     +0.94252156
a   3.6480172      Node   268.62686     -0.90197765     +0.19158102
e   0.4830965      Incl.   10.59475     -0.32949781     +0.27376964
P   6.97
From 69 observations 2018 May 18-Oct. 27, mean residual 0".4.

・ 光度変化

        m1 = 14.0 + 5 logΔ + 10.0 log r

---------------------------------------------------------------------

軌道要素はM.P.E.C. 2019-J142に掲載されたものです。
光度グラフはComet for Windowsで作成したものです。

---------------------------------------------------------------------

Copyright(C) Seiichi Yoshida (comet@aerith.net). All rights reserved.